Time,TemperatureF,DewpointF,PressureIn,WindDirection,WindDirectionDegrees,WindSpeedMPH,WindSpeedGustMPH,Humidity,HourlyPrecipIn,Conditions,Clouds,dailyrainin,SoftwareType,DateUTC
2013-03-28 00:02:00,22.0,15.0,-100.00,West,262,-999.0,4.0,76,-99.99,,,-99.99,,2013-03-28 06:02:00,
2013-03-28 00:12:00,21.0,15.0,-100.00,West,262,-999.0,3.0,78,-99.99,,,-99.99,,2013-03-28 06:12:00,
2013-03-28 00:22:00,20.0,15.0,-100.00,West,262,-999.0,3.0,82,-99.99,,,-99.99,,2013-03-28 06:22:00,
2013-03-28 00:32:00,20.0,15.0,-100.00,West,262,-999.0,3.0,82,-99.99,,,-99.99,,2013-03-28 06:32:00,
2013-03-28 00:42:00,20.0,15.0,-100.00,West,262,-999.0,3.0,82,-99.99,,,-99.99,,2013-03-28 06:42:00,
2013-03-28 00:52:00,19.0,14.0,-100.00,West,262,-999.0,3.0,83,-99.99,,,-99.99,,2013-03-28 06:52:00,
2013-03-28 01:02:00,19.0,14.0,-100.00,West,262,-999.0,3.0,83,-99.99,,,-99.99,,2013-03-28 07:02:00,
2013-03-28 01:12:00,18.0,14.0,-100.00,West,262,-999.0,-999.0,83,-99.99,,,-99.99,,2013-03-28 07:12:00,
2013-03-28 01:22:00,18.0,14.0,-100.00,West,262,-999.0,-999.0,83,-99.99,,,-99.99,,2013-03-28 07:22:00,
2013-03-28 01:32:00,18.0,14.0,-100.00,West,262,-999.0,-999.0,83,-99.99,,,-99.99,,2013-03-28 07:32:00,
2013-03-28 01:42:00,18.0,14.0,-100.00,West,262,-999.0,-999.0,85,-99.99,,,-99.99,,2013-03-28 07:42:00,
2013-03-28 01:52:00,17.0,13.0,-100.00,West,262,-999.0,3.0,86,-99.99,,,-99.99,,2013-03-28 07:52:00,
2013-03-28 02:02:00,17.0,13.0,-100.00,West,262,-999.0,3.0,86,-99.99,,,-99.99,,2013-03-28 08:02:00,
2013-03-28 02:12:00,17.0,14.0,-100.00,West,262,-999.0,1.0,87,-99.99,,,-99.99,,2013-03-28 08:12:00,
2013-03-28 02:21:00,17.0,13.0,-100.00,West,262,-999.0,5.0,85,-99.99,,,-99.99,,2013-03-28 08:21:00,
2013-03-28 02:32:00,17.0,13.0,-100.00,West,262,-999.0,5.0,85,-99.99,,,-99.99,,2013-03-28 08:32:00,
2013-03-28 02:42:00,17.0,12.0,-100.00,West,262,-999.0,5.0,83,-99.99,,,-99.99,,2013-03-28 08:42:00,
2013-03-28 02:52:00,17.0,12.0,-100.00,WSW,256,0.0,6.0,83,-99.99,,,-99.99,,2013-03-28 08:52:00,
2013-03-28 03:02:00,17.0,12.0,-100.00,WSW,256,0.0,6.0,83,-99.99,,,-99.99,,2013-03-28 09:02:00,
2013-03-28 03:12:00,18.0,13.0,-100.00,WSW,256,0.0,4.0,81,-99.99,,,-99.99,,2013-03-28 09:12:00,
2013-03-28 03:22:00,16.0,11.0,-100.00,WSW,256,0.0,5.0,83,-99.99,,,-99.99,,2013-03-28 09:22:00,
2013-03-28 03:32:00,16.0,11.0,-100.00,WSW,256,0.0,5.0,83,-99.99,,,-99.99,,2013-03-28 09:32:00,
2013-03-28 03:42:00,16.0,12.0,-100.00,WSW,256,0.0,5.0,84,-99.99,,,-99.99,,2013-03-28 09:42:00,
2013-03-28 03:52:00,19.0,12.0,-100.00,WSW,256,0.0,6.0,74,-99.99,,,-99.99,,2013-03-28 09:52:00,
2013-03-28 04:03:00,19.0,12.0,-100.00,WSW,256,0.0,6.0,74,-99.99,,,-99.99,,2013-03-28 10:03:00,
2013-03-28 04:12:00,19.0,12.0,-100.00,WSW,256,0.0,3.0,76,-99.99,,,-99.99,,2013-03-28 10:12:00,
2013-03-28 04:22:00,24.0,12.0,-100.00,WSW,256,0.0,6.0,60,-99.99,,,-99.99,,2013-03-28 10:22:00,
2013-03-28 04:33:00,24.0,12.0,-100.00,WSW,256,0.0,6.0,60,-99.99,,,-99.99,,2013-03-28 10:33:00,
2013-03-28 04:42:00,23.0,12.0,-100.00,WSW,256,0.0,9.0,63,-99.99,,,-99.99,,2013-03-28 10:42:00,
2013-03-28 04:52:00,22.0,12.0,-100.00,WSW,256,-999.0,5.0,66,-99.99,,,-99.99,,2013-03-28 10:52:00,
2013-03-28 05:02:00,22.0,12.0,-100.00,WSW,256,-999.0,5.0,66,-99.99,,,-99.99,,2013-03-28 11:02:00,
2013-03-28 05:12:00,22.0,12.0,-100.00,WSW,256,-999.0,2.0,65,-99.99,,,-99.99,,2013-03-28 11:12:00,
2013-03-28 05:23:00,20.0,12.0,-100.00,WSW,256,-999.0,2.0,71,-99.99,,,-99.99,,2013-03-28 11:23:00,
2013-03-28 05:32:00,20.0,12.0,-100.00,WSW,256,-999.0,2.0,71,-99.99,,,-99.99,,2013-03-28 11:32:00,
2013-03-28 05:42:00,20.0,11.0,-100.00,WSW,256,-999.0,2.0,69,-99.99,,,-99.99,,2013-03-28 11:42:00,
2013-03-28 05:52:00,20.0,11.0,-100.00,WSW,256,-999.0,2.0,70,-99.99,,,-99.99,,2013-03-28 11:52:00,
2013-03-28 06:02:00,20.0,11.0,-100.00,WSW,256,-999.0,2.0,70,-99.99,,,-99.99,,2013-03-28 12:02:00,
2013-03-28 06:12:00,19.0,11.0,-100.00,WSW,256,-999.0,-999.0,72,-99.99,,,-99.99,,2013-03-28 12:12:00,
2013-03-28 06:22:00,20.0,11.0,-100.00,WSW,256,-999.0,5.0,69,-99.99,,,-99.99,,2013-03-28 12:22:00,
2013-03-28 06:32:00,20.0,11.0,-100.00,WSW,256,-999.0,5.0,69,-99.99,,,-99.99,,2013-03-28 12:32:00,
2013-03-28 06:42:00,19.0,10.0,-100.00,WSW,256,-999.0,5.0,69,-99.99,,,-99.99,,2013-03-28 12:42:00,
2013-03-28 06:52:00,22.0,11.0,-100.00,West,262,0.0,6.0,63,-99.99,,,-99.99,,2013-03-28 12:52:00,
2013-03-28 07:02:00,22.0,11.0,-100.00,West,262,0.0,6.0,63,-99.99,,,-99.99,,2013-03-28 13:02:00,
2013-03-28 07:12:00,22.0,11.0,-100.00,West,262,0.0,2.0,62,-99.99,,,-99.99,,2013-03-28 13:12:00,
2013-03-28 07:22:00,22.0,11.0,-100.00,West,262,0.0,2.0,63,-99.99,,,-99.99,,2013-03-28 13:22:00,
2013-03-28 07:32:00,22.0,11.0,-100.00,West,262,0.0,2.0,63,-99.99,,,-99.99,,2013-03-28 13:32:00,
2013-03-28 07:42:00,22.0,10.0,-100.00,West,262,0.0,2.0,61,-99.99,,,-99.99,,2013-03-28 13:42:00,
2013-03-28 07:52:00,21.0,11.0,-100.00,West,262,0.0,2.0,65,-99.99,,,-99.99,,2013-03-28 13:52:00,
2013-03-28 08:02:00,21.0,11.0,-100.00,West,262,0.0,2.0,65,-99.99,,,-99.99,,2013-03-28 14:02:00,
2013-03-28 08:12:00,21.0,11.0,-100.00,West,262,0.0,-999.0,65,-99.99,,,-99.99,,2013-03-28 14:12:00,
2013-03-28 08:22:00,22.0,12.0,-100.00,West,262,0.0,3.0,66,-99.99,,,-99.99,,2013-03-28 14:22:00,
2013-03-28 08:32:00,22.0,12.0,-100.00,West,262,0.0,3.0,66,-99.99,,,-99.99,,2013-03-28 14:32:00,
2013-03-28 08:42:00,22.0,13.0,-100.00,West,262,0.0,3.0,67,-99.99,,,-99.99,,2013-03-28 14:42:00,
2013-03-28 08:52:00,24.0,13.0,-100.00,West,262,-999.0,3.0,62,-99.99,,,-99.99,,2013-03-28 14:52:00,
2013-03-28 09:02:00,24.0,13.0,-100.00,West,262,-999.0,3.0,62,-99.99,,,-99.99,,2013-03-28 15:02:00,
2013-03-28 09:12:00,26.0,13.0,-100.00,West,262,-999.0,3.0,57,-99.99,,,-99.99,,2013-03-28 15:12:00,
2013-03-28 09:22:00,27.0,16.0,-100.00,West,262,-999.0,-999.0,65,-99.99,,,-99.99,,2013-03-28 15:22:00,
2013-03-28 09:33:00,27.0,16.0,-100.00,West,262,-999.0,-999.0,65,-99.99,,,-99.99,,2013-03-28 15:33:00,
2013-03-28 09:43:00,29.0,14.0,-100.00,West,262,-999.0,-999.0,52,-99.99,,,-99.99,,2013-03-28 15:43:00,
2013-03-28 09:52:00,31.0,13.0,-100.00,West,262,-999.0,-999.0,47,-99.99,,,-99.99,,2013-03-28 15:52:00,
2013-03-28 10:02:00,31.0,13.0,-100.00,West,262,-999.0,-999.0,47,-99.99,,,-99.99,,2013-03-28 16:02:00,
2013-03-28 10:12:00,34.0,13.0,-100.00,West,262,-999.0,-999.0,41,-99.99,,,-99.99,,2013-03-28 16:12:00,
2013-03-28 10:23:00,37.0,14.0,-100.00,West,262,-999.0,-999.0,38,-99.99,,,-99.99,,2013-03-28 16:23:00,
2013-03-28 10:32:00,37.0,14.0,-100.00,West,262,-999.0,-999.0,38,-99.99,,,-99.99,,2013-03-28 16:32:00,
2013-03-28 10:42:00,37.0,15.0,-100.00,West,262,-999.0,-999.0,39,-99.99,,,-99.99,,2013-03-28 16:42:00,
2013-03-28 10:52:00,39.0,15.0,-100.00,West,262,-999.0,-999.0,36,-99.99,,,-99.99,,2013-03-28 16:52:00,
2013-03-28 11:02:00,39.0,15.0,-100.00,West,262,-999.0,-999.0,36,-99.99,,,-99.99,,2013-03-28 17:02:00,
2013-03-28 11:12:00,38.0,14.0,-100.00,West,262,-999.0,-999.0,36,-99.99,,,-99.99,,2013-03-28 17:12:00,
2013-03-28 11:22:00,37.0,15.0,-100.00,West,262,-999.0,5.0,39,-99.99,,,-99.99,,2013-03-28 17:22:00,
2013-03-28 11:32:00,37.0,15.0,-100.00,West,262,-999.0,5.0,39,-99.99,,,-99.99,,2013-03-28 17:32:00,
2013-03-28 11:42:00,38.0,16.0,-100.00,West,262,-999.0,2.0,39,-99.99,,,-99.99,,2013-03-28 17:42:00,
2013-03-28 11:52:00,38.0,15.0,-100.00,West,262,-999.0,4.0,38,-99.99,,,-99.99,,2013-03-28 17:52:00,
2013-03-28 12:02:00,38.0,15.0,-100.00,West,262,-999.0,4.0,38,-99.99,,,-99.99,,2013-03-28 18:02:00,
2013-03-28 12:12:00,37.0,15.0,-100.00,West,262,-999.0,7.0,40,-99.99,,,-99.99,,2013-03-28 18:12:00,
2013-03-28 12:22:00,40.0,16.0,-100.00,West,262,-999.0,5.0,36,-99.99,,,-99.99,,2013-03-28 18:22:00,
2013-03-28 12:32:00,40.0,16.0,-100.00,West,262,-999.0,5.0,36,-99.99,,,-99.99,,2013-03-28 18:32:00,
2013-03-28 12:42:00,38.0,14.0,-100.00,West,262,0.0,9.0,36,-99.99,,,-99.99,,2013-03-28 18:42:00,
2013-03-28 12:52:00,37.0,14.0,-100.00,West,262,0.0,12.0,38,-99.99,,,-99.99,,2013-03-28 18:52:00,
2013-03-28 13:02:00,37.0,14.0,-100.00,WNW,296,4.0,12.0,38,-99.99,,,-99.99,,2013-03-28 19:02:00,
2013-03-28 13:12:00,37.0,14.0,-100.00,WNW,296,4.0,11.0,37,-99.99,,,-99.99,,2013-03-28 19:12:00,
2013-03-28 13:22:00,38.0,14.0,-100.00,WNW,296,4.0,6.0,36,-99.99,,,-99.99,,2013-03-28 19:22:00,
2013-03-28 13:33:00,38.0,14.0,-100.00,WNW,296,4.0,6.0,36,-99.99,,,-99.99,,2013-03-28 19:33:00,
2013-03-28 13:42:00,40.0,15.0,-100.00,WNW,296,4.0,6.0,35,-99.99,,,-99.99,,2013-03-28 19:42:00,
2013-03-28 13:52:00,40.0,15.0,-100.00,WNW,296,4.0,9.0,35,-99.99,,,-99.99,,2013-03-28 19:52:00,
2013-03-28 14:03:00,40.0,15.0,-100.00,SW,222,1.0,9.0,35,-99.99,,,-99.99,,2013-03-28 20:03:00,
2013-03-28 14:12:00,41.0,15.0,-100.00,SW,222,1.0,11.0,33,-99.99,,,-99.99,,2013-03-28 20:12:00,
2013-03-28 14:22:00,49.0,16.0,-100.00,SW,222,1.0,11.0,25,-99.99,,,-99.99,,2013-03-28 20:22:00,
2013-03-28 14:32:00,49.0,16.0,-100.00,SW,222,1.0,11.0,25,-99.99,,,-99.99,,2013-03-28 20:32:00,
2013-03-28 14:42:00,45.0,15.0,-100.00,SW,222,1.0,7.0,28,-99.99,,,-99.99,,2013-03-28 20:42:00,
2013-03-28 14:52:00,42.0,16.0,-100.00,West,274,1.0,11.0,34,-99.99,,,-99.99,,2013-03-28 20:52:00,
2013-03-28 15:02:00,42.0,16.0,-100.00,West,274,1.0,11.0,34,-99.99,,,-99.99,,2013-03-28 21:02:00,
2013-03-28 15:12:00,42.0,16.0,-100.00,West,274,1.0,11.0,33,-99.99,,,-99.99,,2013-03-28 21:12:00,
2013-03-28 15:22:00,43.0,19.0,-100.00,West,274,1.0,4.0,37,-99.99,,,-99.99,,2013-03-28 21:22:00,
2013-03-28 15:32:00,43.0,19.0,-100.00,West,274,1.0,4.0,37,-99.99,,,-99.99,,2013-03-28 21:32:00,
2013-03-28 15:43:00,41.0,15.0,-100.00,West,262,1.0,8.0,33,-99.99,,,-99.99,,2013-03-28 21:43:00,
2013-03-28 15:53:00,41.0,15.0,-100.00,West,262,1.0,8.0,33,-99.99,,,-99.99,,2013-03-28 21:53:00,
2013-03-28 16:02:00,41.0,15.0,-100.00,West,262,1.0,8.0,33,-99.99,,,-99.99,,2013-03-28 22:02:00,
2013-03-28 16:12:00,40.0,21.0,-100.00,West,262,1.0,9.0,47,-99.99,,,-99.99,,2013-03-28 22:12:00,
2013-03-28 16:22:00,40.0,21.0,-100.00,West,262,1.0,4.0,46,-99.99,,,-99.99,,2013-03-28 22:22:00,
2013-03-28 16:32:00,40.0,21.0,-100.00,West,262,1.0,4.0,46,-99.99,,,-99.99,,2013-03-28 22:32:00,
2013-03-28 16:42:00,39.0,23.0,-100.00,West,262,1.0,7.0,52,-99.99,,,-99.99,,2013-03-28 22:42:00,
2013-03-28 16:52:00,40.0,22.0,-100.00,West,262,1.0,7.0,49,-99.99,,,-99.99,,2013-03-28 22:52:00,
2013-03-28 17:02:00,40.0,22.0,-100.00,ENE,74,1.0,7.0,49,-99.99,,,-99.99,,2013-03-28 23:02:00,
2013-03-28 17:12:00,43.0,23.0,-100.00,ENE,74,1.0,7.0,45,-99.99,,,-99.99,,2013-03-28 23:12:00,
2013-03-28 17:22:00,46.0,23.0,-100.00,ENE,74,1.0,8.0,40,-99.99,,,-99.99,,2013-03-28 23:22:00,
2013-03-28 17:32:00,46.0,23.0,-100.00,ENE,74,1.0,8.0,40,-99.99,,,-99.99,,2013-03-28 23:32:00,
2013-03-28 17:42:00,40.0,22.0,-100.00,ENE,74,1.0,7.0,49,-99.99,,,-99.99,,2013-03-28 23:42:00,
2013-03-28 17:52:00,40.0,22.0,-100.00,ENE,74,1.0,3.0,49,-99.99,,,-99.99,,2013-03-28 23:52:00,
2013-03-28 18:02:00,40.0,22.0,-100.00,ENE,74,1.0,3.0,49,-99.99,,,-99.99,,2013-03-29 00:02:00,
2013-03-28 18:12:00,39.0,22.0,-100.00,ENE,74,1.0,5.0,51,-99.99,,,-99.99,,2013-03-29 00:12:00,
2013-03-28 18:22:00,36.0,24.0,-100.00,ENE,74,1.0,5.0,62,-99.99,,,-99.99,,2013-03-29 00:22:00,
2013-03-28 18:32:00,36.0,24.0,-100.00,ENE,74,1.0,5.0,62,-99.99,,,-99.99,,2013-03-29 00:32:00,
2013-03-28 18:42:00,35.0,23.0,-100.00,ENE,74,1.0,3.0,63,-99.99,,,-99.99,,2013-03-29 00:42:00,
2013-03-28 18:52:00,34.0,24.0,-100.00,ENE,74,1.0,3.0,68,-99.99,,,-99.99,,2013-03-29 00:52:00,
2013-03-28 19:02:00,34.0,24.0,-100.00,ENE,74,-999.0,3.0,68,-99.99,,,-99.99,,2013-03-29 01:02:00,
2013-03-28 19:12:00,33.0,23.0,-100.00,ENE,74,-999.0,3.0,69,-99.99,,,-99.99,,2013-03-29 01:12:00,
2013-03-28 19:22:00,32.0,24.0,-100.00,ENE,74,-999.0,3.0,73,-99.99,,,-99.99,,2013-03-29 01:22:00,
2013-03-28 19:32:00,32.0,24.0,-100.00,ENE,74,-999.0,3.0,73,-99.99,,,-99.99,,2013-03-29 01:32:00,
2013-03-28 19:42:00,32.0,24.0,-100.00,ENE,74,-999.0,-999.0,73,-99.99,,,-99.99,,2013-03-29 01:42:00,
2013-03-28 19:52:00,31.0,25.0,-100.00,ENE,74,-999.0,-999.0,78,-99.99,,,-99.99,,2013-03-29 01:52:00,
2013-03-28 20:02:00,30.0,24.0,-100.00,ENE,74,-999.0,-999.0,80,-99.99,,,-99.99,,2013-03-29 02:02:00,
2013-03-28 20:12:00,30.0,24.0,-100.00,WSW,256,0.0,-999.0,80,-99.99,,,-99.99,,2013-03-29 02:12:00,
2013-03-28 20:22:00,30.0,21.0,-100.00,WSW,256,0.0,-999.0,71,-99.99,,,-99.99,,2013-03-29 02:22:00,
2013-03-28 20:32:00,29.0,23.0,-100.00,WSW,256,0.0,-999.0,78,-99.99,,,-99.99,,2013-03-29 02:32:00,
2013-03-28 20:42:00,29.0,23.0,-100.00,WSW,256,0.0,-999.0,78,-99.99,,,-99.99,,2013-03-29 02:42:00,
2013-03-28 20:52:00,27.0,23.0,-100.00,WSW,256,0.0,-999.0,85,-99.99,,,-99.99,,2013-03-29 02:52:00,
2013-03-28 21:02:00,26.0,22.0,-100.00,WSW,256,0.0,-999.0,86,-99.99,,,-99.99,,2013-03-29 03:02:00,
2013-03-28 21:12:00,26.0,22.0,-100.00,WSW,256,0.0,-999.0,86,-99.99,,,-99.99,,2013-03-29 03:12:00,
2013-03-28 21:22:00,26.0,22.0,-100.00,WSW,256,0.0,-999.0,85,-99.99,,,-99.99,,2013-03-29 03:22:00,
2013-03-28 21:32:00,26.0,22.0,-100.00,WSW,256,0.0,-999.0,85,-99.99,,,-99.99,,2013-03-29 03:32:00,
2013-03-28 21:42:00,26.0,22.0,-100.00,WSW,256,0.0,-999.0,85,-99.99,,,-99.99,,2013-03-29 03:42:00,
2013-03-28 21:52:00,25.0,22.0,-100.00,WSW,256,0.0,-999.0,88,-99.99,,,-99.99,,2013-03-29 03:52:00,
2013-03-28 22:03:00,25.0,22.0,-100.00,WSW,256,0.0,-999.0,89,-99.99,,,-99.99,,2013-03-29 04:03:00,
2013-03-28 22:12:00,25.0,22.0,-100.00,WSW,256,-999.0,-999.0,89,-99.99,,,-99.99,,2013-03-29 04:12:00,
2013-03-28 22:22:00,25.0,22.0,-100.00,WSW,256,-999.0,-999.0,89,-99.99,,,-99.99,,2013-03-29 04:22:00,
2013-03-28 22:33:00,25.0,22.0,-100.00,WSW,256,-999.0,-999.0,88,-99.99,,,-99.99,,2013-03-29 04:33:00,
2013-03-28 22:43:00,25.0,22.0,-100.00,WSW,256,-999.0,-999.0,88,-99.99,,,-99.99,,2013-03-29 04:43:00,
2013-03-28 22:52:00,25.0,22.0,-100.00,WSW,256,-999.0,-999.0,88,-99.99,,,-99.99,,2013-03-29 04:52:00,
2013-03-28 23:03:00,24.0,21.0,-100.00,WSW,256,-999.0,-999.0,89,-99.99,,,-99.99,,2013-03-29 05:03:00,
2013-03-28 23:12:00,24.0,21.0,-100.00,WSW,256,-999.0,-999.0,89,-99.99,,,-99.99,,2013-03-29 05:12:00,
2013-03-28 23:23:00,23.0,20.0,-100.00,WSW,256,-999.0,-999.0,91,-99.99,,,-99.99,,2013-03-29 05:23:00,
2013-03-28 23:32:00,24.0,21.0,-100.00,WSW,256,-999.0,-999.0,89,-99.99,,,-99.99,,2013-03-29 05:32:00,
2013-03-28 23:43:00,24.0,21.0,-100.00,WSW,256,-999.0,-999.0,89,-99.99,,,-99.99,,2013-03-29 05:43:00,
2013-03-28 23:52:00,24.0,21.0,-100.00,WSW,256,-999.0,-999.0,91,-99.99,,,-99.99,,2013-03-29 05:52:00,